Regional Weather Roundup
Issued by NWS

Home | Current Version | Previous Version | Graphics & Text | Print | Product List | Glossary On
Versions: 1 2 3 4 5 6 7 8 9 10 11 12 13 14 15 16 17 18 19 20 21 22 23 24 25 26 27 28 29 30 31 32 33 34 35 36 37 38 39 40 41 42 43 44 45 46 47 48 49 50
488
ASUS45 KABQ 212101
RWRNM
NEW MEXICO REGIONAL WEATHER ROUNDUP
NATIONAL WEATHER SERVICE ALBUQUERQUE NM
300 PM MDT THU MAY 21 2015

NOTE: "FAIR" MEANS FEW OR NO CLOUDS BELOW 12,000 FEET AGL WITH NO
       SIGNIFICANT WEATHER OR OBSTRUCTIONS TO VISION.

      THIS PRODUCT IS RELEASED AS TWO VERSIONS.  ONE VERSION NEAR
      THE TOP OF THE HOUR CONTAINING PRELIMINARY DATA FROM ALBUQUERQUE
      AND OTHER STATIONS.  A FINAL VERSION WITH ADDITIONAL DATA IS
      ISSUED ABOUT 10 MINUTES AFTER THE HOUR.

NMZ501-503-504-510>518-212200-
NORTHWEST PLATEAU/NORTHCENTRAL MOUNTAINS

CITY           SKY/WX    TMP DP  RH WIND       PRES   REMARKS
FARMINGTON     SUNNY     73  25  16 SE15      29.95F
LOS ALAMOS     CLOUDY    50  42  73 SW16G22   30.19F
SANTA FE       CLOUDY    54  40  59 SE23      30.17F
TAOS           CLOUDY    61  39  44 W14G20    30.16F
ANGEL FIRE     LGT RAIN  45  42  89 SE6       30.26F

$$
NMZ402-403-502-505>509-212200-
WESTCENTRAL MOUNTAINS/SOUTHWEST MOUNTAINS

CITY           SKY/WX    TMP DP  RH WIND       PRES   REMARKS
GALLUP         CLOUDY    70  19  14 S23G39    30.02F
GRANTS         CLOUDY    63  40  41 SE29G38   30.06F
SILVER CITY      N/A     73  39  29 S17G28    30.04F

$$
NMZ407-409-411-412-212200-
SOUTHERN DESERTS

CITY           SKY/WX    TMP DP  RH WIND       PRES   REMARKS
LORDSBURG      FAIR      79  25  13 SE14G22   29.93F
DEMING         CLOUDY    80  37  21 S10       29.96F
LAS CRUCES     PTSUNNY   77  49  37 SE17G24   30.00F
HOLLOMAN AFB   MOSUNNY   78  51  39 NW24G33   29.99F
ALAMOGORDO     SUNNY     77  50  38 S21G31    30.00F
T OR C         CLOUDY    75  44  33 S15G28    29.97F

$$
NMZ519>523-212200-
CENTRAL VALLEYS/CENTRAL HIGHLANDS

CITY           SKY/WX    TMP DP  RH WIND       PRES   REMARKS
ALBUQUERQUE    CLOUDY    59  44  57 E26G38    30.08F
DOUBLE EAGLE   CLOUDY    59  45  58 E14       30.11F
MORIARTY ARPT  CLOUDY    51  41  68 SE13      30.20F
CLINES CORNERS CLOUDY    44  41  89 E20G25    30.19F
BELEN          FAIR      68  45  43 SE22      30.05F
SOCORRO        NOT AVBL

$$
NMZ524>526-539-540-212200-
SOUTHCENTRAL MOUNTAINS

CITY           SKY/WX    TMP DP  RH WIND       PRES   REMARKS
RUIDOSO        NOT AVBL

$$
NMZ527>531-212200-
NORTHEAST HIGHLANDS/NORTHEAST PLAINS

CITY           SKY/WX    TMP DP  RH WIND       PRES   REMARKS
LAS VEGAS      CLOUDY    45  41  86 S7        30.23F
RATON          CLOUDY    48  43  82 S20       30.23S
CLAYTON        CLOUDY    49  43  80 S8        30.24S

$$
NMZ532>537-212200-
EASTCENTRAL PLAINS

CITY           SKY/WX    TMP DP  RH WIND       PRES   REMARKS
TUCUMCARI      LGT RAIN  50  46  86 CALM      30.25F FOG
CANNON AFB     CLOUDY    47  46  96 E9        30.23F FOG
CLOVIS AIRPORT CLOUDY    46  43  87 SE9       30.25F

$$
NMZ028-029-538-212200-
SOUTHEAST PLAINS

CITY           SKY/WX    TMP DP  RH WIND       PRES   REMARKS
ROSWELL        CLOUDY    53  50  89 E10       30.19S FOG
ARTESIA        CLOUDY    54  54 100 E10       30.21S FOG
CARLSBAD       CLOUDY    56  51  84 E12       30.18F
HOBBS          FOG       48  48 100 NE12      30.21F VSB 1


$$



USA.gov is the U.S. government's official web portal to all federal, state and local government web resources and services.